UTTI_(FIN-AFB) current weather conditions

sailwx.info

Wind from 310 at 9 knots gusting 20

Air temperature -0.0° C
Visibility: greater than 5.4 NM
Dewpoint -5.0° C

Last reported at 2017-Mar-28 06:20 UTC.
Time now 2017-Mar-28 08:05 UTC

Location: N 60°54' E 026°56'.
View on Google Maps.

See reports from other nearby stations

  
Tides and Currents Weather Stations Pressure Air Temp Water Temp Dewpoint Dewpoint Depression Visibility Wind Speed Wind Dir Waves Ship Positions
date/time (UTC)wind fromknots sea level pressurealtimeterstation pressurevisibilityair tempwater tempwave heightnotes
2017-Mar-28 06:20 310 9 gusting 20 5.4-0.0
2017-Mar-28 05:50 310 12 5.4-0.0
2017-Mar-28 05:20 300 8 5.4-0.0
2017-Mar-28 04:50 300 9 5.4-0.0
2017-Mar-28 04:20 300 9 5.4-0.0
2017-Mar-28 03:50 300 11 5.4-0.0
2017-Mar-28 03:20 300 11 5.4-0.0
2017-Mar-28 02:50 310 9 5.4-0.0
2017-Mar-28 02:20 310 9 5.4-0.0 Light snow.
2017-Mar-28 01:50 310 8 5.4 1.0
2017-Mar-28 01:20 310 11 5.4 1.0
2017-Mar-28 00:50 310 8 5.4 1.0
2017-Mar-28 00:20 310 9 5.4 1.0
2017-Mar-27 23:50 310 11 5.4 1.0
2017-Mar-27 23:20 320 8 5.4 1.0
2017-Mar-27 22:50 330 12 gusting 22 2.7-0.0 Light rain showers.
2017-Mar-27 22:20 330 12 5.4 1.0
2017-Mar-27 21:50 330 13 5.4 2.0
2017-Mar-27 21:20 330 14 5.4 2.0
2017-Mar-27 20:50 320 14 gusting 26 5.4 2.0
2017-Mar-27 20:20 330 19 gusting 33 5.4 3.0
2017-Mar-27 19:50 320 20 gusting 33 5.4 3.0
2017-Mar-27 19:20 310 21 gusting 34 5.4 4.0
2017-Mar-27 18:50 310 22 gusting 40 5.4 4.0
2017-Mar-27 18:20 290 17 gusting 28 5.4 4.0
2017-Mar-27 17:50 290 13 gusting 25 5.4 4.0
2017-Mar-27 17:20 290 24 gusting 38 5.4 5.0 Rain showers.
2017-Mar-27 16:50 280 14 gusting 26 5.4 8.0
2017-Mar-27 16:20 290 13 gusting 22 5.4 7.0 Light rain showers.
2017-Mar-27 15:50 280 14 gusting 26 5.4 9.0 Light rain showers.
2017-Mar-27 15:20 270 11 5.4 8.0
2017-Mar-27 14:50 250 12 5.4 7.0
2017-Mar-27 14:20 220 7 5.4 5.0
2017-Mar-27 13:50 220 8 5.4 5.0 Light rain showers.
2017-Mar-27 13:20 230 9 5.4 5.0 Light rain.
2017-Mar-27 12:50 220 9 5.4 6.0
2017-Mar-27 12:20 230 11 5.4 6.0
2017-Mar-27 11:50 250 9 5.4 6.0
2017-Mar-27 11:20 250 12 5.4 6.0
2017-Mar-27 10:50 260 9 5.4 6.0
2017-Mar-27 10:20 290 8 5.4 6.0
2017-Mar-27 09:50 290 13 5.4 5.0
2017-Mar-27 09:20 290 12 5.4 5.0
2017-Mar-27 08:50 270 9 5.4 4.0
2017-Mar-27 08:20 280 9 5.4 4.0
2017-Mar-27 07:50 290 9 5.4 4.0
2017-Mar-27 07:20 300 11 5.4 3.0
2017-Mar-27 06:50 300 11 gusting 20 5.4 3.0
2017-Mar-27 06:20 300 9 5.4 2.0
2017-Mar-27 05:50 310 11 5.4 2.0
2017-Mar-27 05:20 310 13 5.4 2.0
2017-Mar-27 04:50 310 11 5.4 1.0
2017-Mar-27 04:20 310 12 5.4 1.0
2017-Mar-27 03:50 310 12 5.4 1.0
2017-Mar-27 03:20 310 13 5.4 1.0
2017-Mar-27 02:50 300 11 5.4 2.0
2017-Mar-27 02:20 300 11 5.4 2.0
2017-Mar-27 01:50 300 11 5.4 2.0
2017-Mar-27 01:20 310 12 5.4 3.0
2017-Mar-27 00:50 300 13 gusting 22 5.4 3.0
2017-Mar-27 00:20 310 13 5.4 3.0
2017-Mar-26 23:50 310 13 gusting 22 5.4 3.0
2017-Mar-26 23:20 310 15 5.4 4.0
2017-Mar-26 22:50 300 14 gusting 24 5.4 4.0
2017-Mar-26 22:20 310 15 5.4 4.0
2017-Mar-26 21:50 310 17 gusting 28 5.4 4.0
2017-Mar-26 21:20 310 14 5.4 5.0
2017-Mar-26 20:50 310 14 5.4 5.0
2017-Mar-26 20:20 310 13 5.4 5.0
2017-Mar-26 19:50 310 20 gusting 34 5.4 6.0
2017-Mar-26 19:20 310 18 gusting 27 5.4 6.0
2017-Mar-26 18:50 310 14 gusting 26 5.4 5.0
2017-Mar-26 18:20 310 14 5.4 5.0
2017-Mar-26 17:50 310 14 gusting 26 5.4 5.0
2017-Mar-26 17:20 330 20 gusting 41 5.4 4.0 Light rain showers.
2017-Mar-26 16:50 290 12 5.4 7.0
2017-Mar-26 16:20 330 14 gusting 27 5.4 7.0 Light rain showers.
2017-Mar-26 15:50 300 15 gusting 29 5.4 7.0 Light rain showers.
2017-Mar-26 15:20 270 11 5.410.0
2017-Mar-26 14:50 280 13 5.4 9.0
2017-Mar-26 14:20 270 13 5.4 9.0
2017-Mar-26 13:50 270 13 5.4 9.0
2017-Mar-26 13:20 260 11 5.4 8.0
2017-Mar-26 12:50 260 9 5.4 7.0
2017-Mar-26 12:20 250 13 5.4 6.0
2017-Mar-26 11:50 230 11 5.4 5.0
2017-Mar-26 11:20 220 11 5.4 3.0
2017-Mar-26 10:50 230 12 5.4 3.0
2017-Mar-26 10:20 220 11 5.4 3.0
2017-Mar-26 09:50 220 11 5.4 2.0
2017-Mar-26 09:20 220 13 1.7 1.0 Mist.
2017-Mar-26 08:50 210 13 1.3 1.0 Mist.
2017-Mar-26 08:20 200 13 5.4 1.0 Light rain showers.